Weather History for Newberry, MI

Change the Weather History Date:

Friday, June 7, 2013

  Actual Average Record
Temperature  
Mean Temperature 60 °F -  
Max Temperature 73 °F 70 °F 90 °F (1976)
Min Temperature 48 °F 47 °F 33 °F (1912)
Degree Days  
Heating Degree Days 4    
Growing Degree Days 10 (Base 50)    
Moisture  
Dew Point 37 °F    
Average Humidity 48    
Maximum Humidity 76    
Minimum Humidity 18    
Precipitation  
Precipitation 0.00 in - - ()
Sea Level Pressure  
Sea Level Pressure 29.98 in    
Wind  
Wind Speed 4 mph (North)    
Max Wind Speed 12 mph    
Max Gust Speed -    
Visibility 10 miles    
Events      
Averages and records for this station are not official NWS values.
T = Trace of Precipitation, MM = Missing Value Source: NWS Daily Summary

Daily Weather History Graph

Daily Weather History Graph

Search for Another Location

Airport:

Trip Planner

Search our weather history database for the weather conditions in past years. The results will help you decide how hot, cold, wet, or windy it might be!

Date:

Astronomy

Jun. 07, 2013 Rise Set
Actual Time 5:50 AM EDT 9:31 PM EDT
Civil Twilight 5:12 AM EDT 10:09 PM EDT
Nautical Twilight 4:20 AM EDT 11:01 PM EDT
Astronomical Twilight 3:10 AM EDT 12:12 AM EDT
Moon 5:17 AM EDT (6/7) 8:41 PM EDT (6/7)
Length of Visible Light 16h 57m
Length of Day
15h 40m
Waning Crescent, 1% of the Moon is Illuminated
Jun 7
Waning Crescent
Jun 8
New
Jun 16
First Quarter
Jun 23
Full
Jun 30
Last Quarter

Hourly Weather History & Observations

Time (EDT) Temp. Dew Point Humidity Pressure Visibility Wind Dir Wind Speed Gust Speed Precip Events Conditions
12:15 AM 50.0 °F 35.6 °F 58% 30.03 in 10.0 mi NNW 3.5 mph - N/A   Scattered Clouds
12:34 AM 50.0 °F 35.6 °F 58% 30.03 in 10.0 mi NNW 4.6 mph - N/A   Scattered Clouds
12:55 AM 50.0 °F 35.6 °F 58% 30.03 in 10.0 mi NNW 4.6 mph - N/A   Scattered Clouds
1:15 AM 50.0 °F 37.4 °F 62% 30.02 in 10.0 mi Calm Calm - N/A   Scattered Clouds
1:34 AM 50.0 °F 37.4 °F 62% 30.02 in 10.0 mi NW 3.5 mph - N/A   Clear
1:55 AM 50.0 °F 37.4 °F 62% 30.02 in 10.0 mi NW 3.5 mph - N/A   Clear
2:14 AM 48.2 °F 37.4 °F 66% 30.02 in 10.0 mi NW 3.5 mph - N/A   Clear
2:34 AM 48.2 °F 39.2 °F 71% 30.01 in 10.0 mi WNW 4.6 mph - N/A   Clear
2:55 AM 48.2 °F 39.2 °F 71% 30.01 in 10.0 mi NW 4.6 mph - N/A   Scattered Clouds
3:14 AM 48.2 °F 39.2 °F 71% 30.01 in 10.0 mi NW 4.6 mph - N/A   Scattered Clouds
3:34 AM 48.2 °F 39.2 °F 71% 30.01 in 10.0 mi NW 4.6 mph - N/A   Clear
3:55 AM 48.2 °F 39.2 °F 71% 30.00 in 10.0 mi NW 3.5 mph - N/A   Scattered Clouds
4:14 AM 48.2 °F 39.2 °F 71% 30.00 in 10.0 mi NW 5.8 mph - N/A   Mostly Cloudy
4:35 AM 50.0 °F 39.2 °F 66% 30.00 in 10.0 mi NW 4.6 mph - N/A   Mostly Cloudy
4:55 AM 50.0 °F 39.2 °F 66% 30.00 in 10.0 mi NW 5.8 mph - N/A   Scattered Clouds
5:14 AM 51.8 °F 39.2 °F 62% 30.00 in 10.0 mi NW 3.5 mph - N/A   Scattered Clouds
5:35 AM 48.2 °F 39.2 °F 71% 30.00 in 10.0 mi Calm Calm - N/A   Mostly Cloudy
5:55 AM 48.2 °F 39.2 °F 71% 30.00 in 10.0 mi NNW 3.5 mph - N/A   Scattered Clouds
6:14 AM 48.2 °F 39.2 °F 71% 30.00 in 10.0 mi NW 4.6 mph - N/A   Clear
6:35 AM 48.2 °F 39.2 °F 71% 30.00 in 10.0 mi NNW 4.6 mph - N/A   Clear
6:54 AM 48.2 °F 39.2 °F 71% 30.00 in 10.0 mi NNW 5.8 mph - N/A   Scattered Clouds
7:15 AM 50.0 °F 39.2 °F 66% 30.00 in 10.0 mi NNW 5.8 mph - N/A   Scattered Clouds
7:35 AM 50.0 °F 41.0 °F 71% 30.00 in 10.0 mi NNW 5.8 mph - N/A   Clear
7:54 AM 51.8 °F 39.2 °F 62% 30.00 in 10.0 mi North 3.5 mph - N/A   Clear
8:15 AM 53.6 °F 42.8 °F 67% 30.01 in 10.0 mi North 4.6 mph - N/A   Clear
8:34 AM 53.6 °F 42.8 °F 67% 30.01 in 10.0 mi North 4.6 mph - N/A   Clear
8:55 AM 55.4 °F 42.8 °F 63% 30.01 in 10.0 mi North 4.6 mph - N/A   Clear
9:14 AM 57.2 °F 42.8 °F 59% 30.01 in 10.0 mi North 5.8 mph - N/A   Clear
9:34 AM 60.8 °F 42.8 °F 52% 30.01 in 10.0 mi North 3.5 mph - N/A   Clear
9:55 AM 62.6 °F 42.8 °F 48% 30.01 in 10.0 mi NE 3.5 mph - N/A   Clear
10:14 AM 64.4 °F 41.0 °F 42% 30.00 in 4.0 mi NNE 5.8 mph - N/A   Haze
10:34 AM 64.4 °F 42.8 °F 45% 30.00 in 10.0 mi North 4.6 mph - N/A   Clear
10:55 AM 66.2 °F 42.8 °F 43% 30.00 in 10.0 mi Calm Calm - N/A   Clear
11:14 AM 66.2 °F 42.8 °F 43% 29.99 in 10.0 mi NNW 3.5 mph - N/A   Clear
11:35 AM 68.0 °F 39.2 °F 35% 30.00 in 10.0 mi North 3.5 mph - N/A   Clear
11:54 AM 71.6 °F 42.8 °F 35% 29.99 in 10.0 mi NE 9.2 mph - N/A   Clear
12:14 PM 68.0 °F 37.4 °F 33% 29.99 in 10.0 mi NNE 5.8 mph - N/A   Clear
12:35 PM 69.8 °F 37.4 °F 31% 29.99 in 10.0 mi ENE 8.1 mph - N/A   Scattered Clouds
12:54 PM 71.6 °F 37.4 °F 29% 29.98 in 10.0 mi ENE 11.5 mph - N/A   Scattered Clouds
1:15 PM 71.6 °F 33.8 °F 25% 29.98 in 10.0 mi Calm Calm - N/A   Clear
1:35 PM 71.6 °F 33.8 °F 25% 29.97 in 10.0 mi North 6.9 mph - N/A   Clear
1:54 PM 71.6 °F 33.8 °F 25% 29.97 in 10.0 mi NNW 8.1 mph - N/A   Clear
2:15 PM 71.6 °F 33.8 °F 25% 29.96 in 10.0 mi ESE 4.6 mph - N/A   Clear
2:35 PM 71.6 °F 32.0 °F 23% 29.95 in 10.0 mi ENE 4.6 mph - N/A   Clear
2:54 PM 73.4 °F 33.8 °F 23% 29.95 in 10.0 mi NNE 6.9 mph - N/A   Clear
3:15 PM 73.4 °F 33.8 °F 23% 29.95 in 10.0 mi North 8.1 mph - N/A   Clear
3:34 PM 73.4 °F 30.2 °F 20% 29.94 in 10.0 mi East 3.5 mph - N/A   Clear
3:54 PM 73.4 °F 30.2 °F 20% 29.94 in 10.0 mi ESE 5.8 mph - N/A   Clear
4:15 PM 73.4 °F 30.2 °F 20% 29.93 in 10.0 mi ENE 9.2 mph - N/A   Clear
4:34 PM 73.4 °F 32.0 °F 22% 29.93 in 10.0 mi NNW 4.6 mph - N/A   Clear
4:55 PM 73.4 °F 26.6 °F 18% 29.93 in 10.0 mi East 3.5 mph - N/A   Clear
5:14 PM 73.4 °F 35.6 °F 25% 29.92 in 10.0 mi WNW 4.6 mph - N/A   Clear
5:35 PM 73.4 °F 33.8 °F 23% 29.92 in 10.0 mi North 5.8 mph - N/A   Clear
5:55 PM 73.4 °F 35.6 °F 25% 29.92 in 10.0 mi NNE 8.1 mph - N/A   Clear
6:14 PM 71.6 °F 35.6 °F 27% 29.92 in 10.0 mi North 9.2 mph - N/A   Clear
6:35 PM 71.6 °F 35.6 °F 27% 29.93 in 10.0 mi North 10.4 mph - N/A   Clear
6:55 PM 69.8 °F 35.6 °F 28% 29.93 in 10.0 mi NW 6.9 mph - N/A   Clear
7:14 PM 69.8 °F 35.6 °F 28% 29.93 in 10.0 mi North 4.6 mph - N/A   Clear
7:35 PM 68.0 °F 33.8 °F 28% 29.93 in 10.0 mi North 8.1 mph - N/A   Clear
7:54 PM 68.0 °F 33.8 °F 28% 29.93 in 10.0 mi North 6.9 mph - N/A   Clear
8:14 PM 66.2 °F 33.8 °F 30% 29.94 in 10.0 mi NNW 5.8 mph - N/A   Clear
8:35 PM 64.4 °F 35.6 °F 34% 29.95 in 10.0 mi NNW 8.1 mph - N/A   Clear
8:54 PM 60.8 °F 35.6 °F 39% 29.95 in 10.0 mi NNW 8.1 mph - N/A   Clear
9:14 PM 59.0 °F 37.4 °F 45% 29.95 in 10.0 mi North 6.9 mph - N/A   Clear
9:35 PM 57.2 °F 37.4 °F 48% 29.96 in 7.0 mi NNE 4.6 mph - N/A   Clear
9:54 PM 55.4 °F 37.4 °F 51% 29.96 in 10.0 mi NNE 3.5 mph - N/A   Clear
10:15 PM 53.6 °F 37.4 °F 54% 29.96 in 10.0 mi Calm Calm - N/A   Clear
10:35 PM 53.6 °F 37.4 °F 54% 29.96 in 10.0 mi Calm Calm - N/A   Clear
10:54 PM 51.8 °F 39.2 °F 62% 29.96 in 10.0 mi Calm Calm - N/A   Clear
11:15 PM 50.0 °F 41.0 °F 71% 29.97 in 10.0 mi Calm Calm - N/A   Clear
11:34 PM 50.0 °F 39.2 °F 66% 29.97 in 10.0 mi Calm Calm - N/A   Clear
11:55 PM 48.2 °F 41.0 °F 76% 29.96 in 10.0 mi Calm Calm - N/A   Clear